Weather History for KLLJ - January, 2014

Change the Weather History Date:

Sunday, January 19, 2014

  Actual Average Record
Temperature  
Mean Temperature 25 °F 19 °F  
Max Temperature 40 °F 30 °F 50 °F (1919)
Min Temperature 10 °F 9 °F -28 °F (1922)
Degree Days  
Heating Degree Days 40 46  
Month to date heating degree days 733 888  
Since 1 July heating degree days 4189 4384  
Cooling Degree Days 0 0  
Month to date cooling degree days 0 0  
Year to date cooling degree days 0 0  
Moisture  
Dew Point 14 °F    
Average Humidity 61    
Maximum Humidity 84    
Minimum Humidity 37    
Precipitation  
Precipitation 0.00 in 0.01 in 0.21 in (1974)
Month to date precipitation 0.15 0.34  
Year to date precipitation 0.15 0.34  
Sea Level Pressure  
Sea Level Pressure 30.34 in    
Wind  
Wind Speed 2 mph (WNW)    
Max Wind Speed 10 mph    
Max Gust Speed 12 mph    
Visibility 10 miles    
Events      
T = Trace of Precipitation, MM = Missing Value Source: NWS Daily Summary

Daily Weather History Graph

Daily Weather History Graph

Search for Another Location

Airport or City:

Trip Planner

Search our weather history database for the weather conditions in past years. The results will help you decide how hot, cold, wet, or windy it might be!

Date:

Astronomy

Jan. 19, 2014 Rise Set
Actual Time 8:07 AM MST 5:28 PM MST
Civil Twilight 7:35 AM MST 6:00 PM MST
Nautical Twilight 6:59 AM MST 6:36 PM MST
Astronomical Twilight 6:24 AM MST 7:10 PM MST
Moon 9:20 PM MST (1/19) 9:29 AM MST (1/19)
Length of Visible Light 10h 25m
Length of Day
9h 20m
Waning Gibbous, 89% of the Moon is Illuminated
Jan 19
Waning Gibbous
Jan 23
Last Quarter
Jan 30
New
Feb 6
First Quarter
Feb 14
Full

Hourly Weather History & Observations

Time (MST) Temp. Windchill Dew Point Humidity Pressure Visibility Wind Dir Wind Speed Gust Speed Precip Events Conditions
12:55 AM 17.1 °F - 12.9 °F 84% 30.37 in 10.0 mi Calm Calm - N/A   Clear
1:55 AM 15.1 °F 9.4 °F 10.9 °F 84% 30.38 in 10.0 mi SSW 3.5 mph - N/A   Clear
2:55 AM 12.0 °F - 8.1 °F 84% 30.38 in 10.0 mi Calm Calm - N/A   Clear
3:55 AM 15.1 °F - 10.9 °F 84% 30.35 in 10.0 mi Calm Calm - N/A   Clear
4:55 AM 15.1 °F - 10.9 °F 84% 30.37 in 10.0 mi Calm Calm - N/A   Clear
5:55 AM 12.0 °F - 8.1 °F 84% 30.40 in 10.0 mi Calm Calm - N/A   Clear
6:55 AM 12.0 °F - 9.0 °F 88% 30.41 in 10.0 mi Calm Calm - N/A   Clear
7:55 AM 10.0 °F - 7.0 °F 87% 30.44 in 10.0 mi Calm Calm - N/A   Clear
8:55 AM 16.0 °F - 10.9 °F 81% 30.42 in 10.0 mi Calm Calm - N/A   Clear
9:55 AM 19.0 °F - 12.9 °F 77% 30.42 in 10.0 mi Calm Calm - N/A   Clear
10:55 AM 24.1 °F 19.7 °F 16.0 °F 71% 30.39 in 10.0 mi ENE 3.5 mph - N/A   Clear
11:55 AM 27.0 °F 18.0 °F 16.0 °F 63% 30.34 in 10.0 mi North 9.2 mph - N/A   Clear
12:55 PM 32.0 °F 28.7 °F 15.1 °F 50% 30.29 in 10.0 mi NNW 3.5 mph - N/A   Clear
1:55 PM 36.0 °F 30.3 °F 16.0 °F 44% 30.25 in 10.0 mi SSE 6.9 mph - N/A   Clear
2:55 PM 37.9 °F - 15.1 °F 39% 30.24 in 10.0 mi Calm Calm - N/A   Clear
3:55 PM 39.9 °F 37.8 °F 15.1 °F 36% 30.20 in 10.0 mi North 3.5 mph - N/A   Clear
4:55 PM 33.1 °F 27.7 °F 16.0 °F 50% 30.24 in 10.0 mi West 5.8 mph - N/A   Clear
5:55 PM 30.0 °F 26.5 °F 17.1 °F 59% 30.27 in 10.0 mi Variable 3.5 mph - N/A   Clear
6:55 PM 27.0 °F - 17.1 °F 66% 30.30 in 10.0 mi Calm Calm - N/A   Clear
7:55 PM 23.0 °F - 16.0 °F 74% 30.33 in 10.0 mi Calm Calm - N/A   Clear
8:55 PM 23.0 °F 17.0 °F 15.1 °F 72% 30.32 in 10.0 mi WNW 4.6 mph - N/A   Clear
9:55 PM 23.0 °F 17.0 °F 16.0 °F 74% 30.33 in 10.0 mi South 4.6 mph - N/A   Clear
10:55 PM 24.1 °F 18.2 °F 17.1 °F 75% 30.32 in 10.0 mi SE 4.6 mph - N/A   Clear
11:55 PM 21.9 °F - 16.0 °F 78% 30.35 in 10.0 mi Calm Calm - N/A   Clear